status,avgMeasuredTime,avgSpeed,extID,medianMeasuredTime,TIMESTAMP,vehicleCount,_id,REPORT_ID
OK,85,55,838,85,2014-08-01T07:55:00,0,20746562,203742
OK,85,55,838,85,2014-08-01T08:00:00,0,20746893,203742
OK,85,55,838,85,2014-08-01T08:05:00,0,20747342,203742
OK,85,55,838,85,2014-08-01T08:10:00,0,20747715,203742
OK,85,55,838,85,2014-08-01T08:15:00,0,20748164,203742
OK,85,55,838,85,2014-08-01T08:20:00,0,20748613,203742
OK,85,55,838,85,2014-08-01T08:25:00,0,20749062,203742
OK,85,55,838,85,2014-08-01T08:30:00,0,20749511,203742
OK,85,55,838,85,2014-08-01T08:35:00,0,20749960,203742
OK,85,55,838,85,2014-08-01T08:40:00,0,20750409,203742
OK,85,55,838,85,2014-08-01T08:45:00,0,20750858,203742
OK,85,55,838,85,2014-08-01T08:50:00,0,20751307,203742
OK,85,55,838,85,2014-08-01T08:55:00,0,20751756,203742
OK,85,55,838,85,2014-08-01T09:00:00,0,20752205,203742
OK,85,55,838,85,2014-08-01T09:05:00,0,20752654,203742
OK,85,55,838,85,2014-08-01T09:10:00,0,20753103,203742
OK,85,55,838,85,2014-08-01T09:15:00,0,20753552,203742
OK,85,55,838,85,2014-08-01T09:20:00,0,20754001,203742
OK,85,55,838,85,2014-08-01T09:25:00,0,20754450,203742
OK,85,55,838,85,2014-08-01T09:30:00,0,20754899,203742
OK,85,55,838,85,2014-08-01T09:35:00,0,20755348,203742
OK,85,55,838,85,2014-08-01T09:40:00,0,20755797,203742
OK,85,55,838,85,2014-08-01T09:45:00,0,20756246,203742
OK,85,55,838,85,2014-08-01T09:50:00,0,20756695,203742
OK,85,55,838,85,2014-08-01T09:55:00,0,20757144,203742
OK,153,30,838,153,2014-08-01T10:00:00,1,20757593,203742
OK,153,30,838,153,2014-08-01T10:05:00,0,20758042,203742
OK,153,30,838,153,2014-08-01T10:10:00,0,20758491,203742
OK,153,30,838,153,2014-08-01T10:15:00,0,20758940,203742
OK,153,30,838,153,2014-08-01T10:20:00,0,20759389,203742
OK,153,30,838,153,2014-08-01T10:25:00,0,20759838,203742
OK,153,30,838,153,2014-08-01T10:30:00,0,20760287,203742
OK,153,30,838,153,2014-08-01T10:35:00,0,20760736,203742
OK,153,30,838,153,2014-08-01T10:40:00,0,20761185,203742
OK,153,30,838,153,2014-08-01T10:45:00,0,20761634,203742
OK,153,30,838,153,2014-08-01T10:50:00,0,20762083,203742
OK,153,30,838,153,2014-08-01T10:55:00,0,20762532,203742
OK,153,30,838,153,2014-08-01T11:00:00,0,20762981,203742
OK,153,30,838,153,2014-08-01T11:05:00,0,20763430,203742
OK,153,30,838,153,2014-08-01T11:10:00,0,20763879,203742
OK,153,30,838,153,2014-08-01T11:15:00,0,20764327,203742
OK,153,30,838,153,2014-08-01T11:20:00,0,20764776,203742
OK,132,35,838,132,2014-08-01T11:25:00,1,20765225,203742
OK,127,37,838,127,2014-08-01T11:30:00,2,20765674,203742
OK,123,38,838,123,2014-08-01T11:35:00,1,20766123,203742
OK,123,38,838,123,2014-08-01T11:40:00,0,20766572,203742
OK,123,38,838,123,2014-08-01T11:45:00,0,20767021,203742
OK,123,38,838,123,2014-08-01T11:50:00,0,20767470,203742
OK,123,38,838,123,2014-08-01T11:55:00,0,20767919,203742
OK,123,38,838,123,2014-08-01T12:00:00,0,20768368,203742
OK,123,38,838,123,2014-08-01T12:05:00,0,20768817,203742
OK,123,38,838,123,2014-08-01T12:10:00,0,20769266,203742
OK,123,38,838,123,2014-08-01T12:15:00,0,20769715,203742
OK,123,38,838,123,2014-08-01T12:20:00,0,20770164,203742
OK,123,38,838,123,2014-08-01T12:25:00,0,20770613,203742
OK,123,38,838,123,2014-08-01T12:30:00,0,20771062,203742
OK,123,38,838,123,2014-08-01T12:35:00,0,20771511,203742
OK,123,38,838,123,2014-08-01T12:40:00,0,20771960,203742
OK,123,38,838,123,2014-08-01T12:45:00,0,20772409,203742
OK,123,38,838,123,2014-08-01T12:50:00,0,20772858,203742
OK,123,38,838,123,2014-08-01T12:55:00,0,20773307,203742
OK,123,38,838,123,2014-08-01T13:00:00,0,20773756,203742
OK,92,51,838,92,2014-08-01T13:05:00,1,20774205,203742
OK,92,51,838,92,2014-08-01T13:10:00,1,20774654,203742
OK,92,51,838,92,2014-08-01T13:15:00,0,20775103,203742
OK,92,51,838,92,2014-08-01T13:20:00,0,20775552,203742
OK,92,51,838,92,2014-08-01T13:25:00,0,20776001,203742
OK,92,51,838,92,2014-08-01T13:30:00,0,20776450,203742
OK,92,51,838,92,2014-08-01T13:35:00,0,20776899,203742
OK,92,51,838,92,2014-08-01T13:40:00,0,20777348,203742
OK,92,51,838,92,2014-08-01T13:45:00,0,20777797,203742
OK,92,51,838,92,2014-08-01T13:50:00,0,20778246,203742
OK,92,51,838,92,2014-08-01T13:55:00,0,20778695,203742
OK,92,51,838,92,2014-08-01T14:00:00,0,20779144,203742
OK,92,51,838,92,2014-08-01T14:05:00,0,20779593,203742
OK,92,51,838,92,2014-08-01T14:10:00,0,20780042,203742
OK,92,51,838,92,2014-08-01T14:15:00,0,20780491,203742
OK,92,51,838,92,2014-08-01T14:20:00,0,20780940,203742
OK,92,51,838,92,2014-08-01T14:25:00,0,20781389,203742
OK,92,51,838,92,2014-08-01T14:30:00,0,20781838,203742
OK,92,51,838,92,2014-08-01T14:35:00,0,20782287,203742
OK,92,51,838,92,2014-08-01T14:40:00,0,20782736,203742
OK,92,51,838,92,2014-08-01T14:45:00,0,20783185,203742
OK,92,51,838,92,2014-08-01T14:50:00,0,20783634,203742
OK,92,51,838,92,2014-08-01T14:55:00,0,20784083,203742
OK,92,51,838,92,2014-08-01T15:00:00,0,20784532,203742
OK,92,51,838,92,2014-08-01T15:05:00,0,20784981,203742
OK,92,51,838,92,2014-08-01T15:10:00,0,20785430,203742
OK,92,51,838,92,2014-08-01T15:15:00,0,20785879,203742
OK,92,51,838,92,2014-08-01T15:20:00,0,20786328,203742
OK,92,51,838,92,2014-08-01T15:25:00,0,20786777,203742
OK,92,51,838,92,2014-08-01T15:30:00,0,20787226,203742
OK,92,51,838,92,2014-08-01T15:35:00,0,20787675,203742
OK,92,51,838,92,2014-08-01T15:40:00,0,20788124,203742
OK,92,51,838,92,2014-08-01T15:45:00,0,20788573,203742
OK,92,51,838,92,2014-08-01T15:50:00,0,20789022,203742
OK,92,51,838,92,2014-08-01T15:55:00,0,20789471,203742
OK,92,51,838,92,2014-08-01T16:00:00,0,20789920,203742
OK,92,51,838,92,2014-08-01T16:05:00,0,20790369,203742
OK,92,51,838,92,2014-08-01T16:10:00,0,20790818,203742
OK,92,51,838,92,2014-08-01T16:15:00,0,20791267,203742
OK,92,51,838,92,2014-08-01T16:20:00,0,20791716,203742
OK,92,51,838,92,2014-08-01T16:25:00,0,20792165,203742
OK,92,51,838,92,2014-08-01T16:30:00,0,20792614,203742
OK,92,51,838,92,2014-08-01T16:35:00,0,20793063,203742
OK,92,51,838,92,2014-08-01T16:40:00,0,20793512,203742
OK,92,51,838,92,2014-08-01T16:45:00,0,20793961,203742
OK,92,51,838,92,2014-08-01T16:50:00,0,20794410,203742
OK,92,51,838,92,2014-08-01T16:55:00,0,20794859,203742
OK,92,51,838,92,2014-08-01T17:00:00,0,20795308,203742
OK,92,51,838,92,2014-08-01T17:05:00,0,20795757,203742
OK,92,51,838,92,2014-08-01T17:10:00,0,20796206,203742
OK,92,51,838,92,2014-08-01T17:15:00,0,20796655,203742
OK,105,44,838,105,2014-08-01T17:20:00,2,20797104,203742
OK,105,44,838,105,2014-08-01T17:25:00,1,20797553,203742
OK,105,44,838,105,2014-08-01T17:30:00,0,20798002,203742
OK,105,44,838,105,2014-08-01T17:35:00,0,20798451,203742
OK,105,44,838,105,2014-08-01T17:40:00,0,20798900,203742
OK,105,44,838,105,2014-08-01T17:45:00,0,20799349,203742
OK,105,44,838,105,2014-08-01T17:50:00,0,20799798,203742
OK,105,44,838,105,2014-08-01T17:55:00,0,20800247,203742
OK,105,44,838,105,2014-08-01T18:00:00,0,20800696,203742
OK,105,44,838,105,2014-08-01T18:05:00,0,20801145,203742
OK,105,44,838,105,2014-08-01T18:10:00,0,20801594,203742
OK,105,44,838,105,2014-08-01T18:15:00,0,20802043,203742
OK,105,44,838,105,2014-08-01T18:20:00,0,20802492,203742
OK,105,44,838,105,2014-08-01T18:25:00,0,20802941,203742
OK,105,44,838,105,2014-08-01T18:30:00,0,20803390,203742
OK,105,44,838,105,2014-08-01T18:35:00,0,20803839,203742
OK,105,44,838,105,2014-08-01T18:40:00,0,20804288,203742
OK,105,44,838,105,2014-08-01T18:45:00,0,20804737,203742
OK,105,44,838,105,2014-08-01T18:50:00,0,20805186,203742
OK,105,44,838,105,2014-08-01T18:55:00,0,20805635,203742
OK,105,44,838,105,2014-08-01T19:00:00,0,20806084,203742
OK,69,68,838,69,2014-08-01T19:05:00,2,20806533,203742
OK,69,68,838,69,2014-08-01T19:10:00,0,20806982,203742
OK,69,68,838,69,2014-08-01T19:15:00,0,20807431,203742
OK,69,68,838,69,2014-08-01T19:20:00,0,20807880,203742
OK,69,68,838,69,2014-08-01T19:25:00,0,20808329,203742
OK,69,68,838,69,2014-08-01T19:30:00,0,20808778,203742
OK,69,68,838,69,2014-08-01T19:35:00,0,20809227,203742
OK,69,68,838,69,2014-08-01T19:40:00,0,20809676,203742
OK,69,68,838,69,2014-08-01T19:45:00,0,20810125,203742
OK,69,68,838,69,2014-08-01T19:50:00,0,20810574,203742
OK,69,68,838,69,2014-08-01T19:55:00,0,20811023,203742
OK,69,68,838,69,2014-08-01T22:00:00,0,20816752,203742
OK,69,68,838,69,2014-08-01T22:05:00,0,20817201,203742
OK,69,68,838,69,2014-08-01T22:10:00,0,20817523,203742
OK,69,68,838,69,2014-08-01T22:20:00,0,20818242,203742
OK,69,68,838,69,2014-08-01T22:25:00,0,20818558,203742
OK,69,68,838,69,2014-08-01T23:45:00,0,20822300,203742
OK,69,68,838,69,2014-08-02T00:00:00,0,20823191,203742
OK,69,68,838,69,2014-08-02T00:05:00,0,20823640,203742
OK,69,68,838,69,2014-08-02T00:10:00,0,20824089,203742
OK,69,68,838,69,2014-08-02T00:15:00,0,20824538,203742
OK,69,68,838,69,2014-08-02T00:20:00,0,20824987,203742
OK,69,68,838,69,2014-08-02T00:25:00,0,20825436,203742
OK,69,68,838,69,2014-08-02T00:30:00,0,20825885,203742
OK,69,68,838,69,2014-08-02T00:35:00,0,20826334,203742
OK,69,68,838,69,2014-08-02T00:40:00,0,20826783,203742
OK,69,68,838,69,2014-08-02T00:45:00,0,20827232,203742
OK,69,68,838,69,2014-08-02T00:50:00,0,20827681,203742
OK,69,68,838,69,2014-08-02T00:55:00,0,20828130,203742
OK,69,68,838,69,2014-08-02T01:00:00,0,20828579,203742
OK,69,68,838,69,2014-08-02T01:05:00,0,20829028,203742
OK,69,68,838,69,2014-08-02T01:10:00,0,20829477,203742
OK,69,68,838,69,2014-08-02T01:15:00,0,20829926,203742
OK,69,68,838,69,2014-08-02T01:20:00,0,20830375,203742
OK,69,68,838,69,2014-08-02T01:25:00,0,20830824,203742
OK,69,68,838,69,2014-08-02T01:30:00,0,20831273,203742
OK,69,68,838,69,2014-08-02T01:35:00,0,20831722,203742
OK,69,68,838,69,2014-08-02T01:40:00,0,20832171,203742
OK,69,68,838,69,2014-08-02T01:45:00,0,20832620,203742
OK,69,68,838,69,2014-08-02T01:50:00,0,20833069,203742
OK,69,68,838,69,2014-08-02T01:55:00,0,20833518,203742
OK,69,68,838,69,2014-08-02T02:00:00,0,20833967,203742
OK,69,68,838,69,2014-08-02T02:05:00,0,20834416,203742
OK,69,68,838,69,2014-08-02T02:10:00,0,20834865,203742
OK,69,68,838,69,2014-08-02T02:15:00,0,20835314,203742
OK,69,68,838,69,2014-08-02T02:20:00,0,20835763,203742
OK,69,68,838,69,2014-08-02T02:25:00,0,20836212,203742
OK,69,68,838,69,2014-08-02T02:30:00,0,20836661,203742
OK,69,68,838,69,2014-08-02T02:35:00,0,20837110,203742
OK,69,68,838,69,2014-08-02T02:40:00,0,20837559,203742
OK,69,68,838,69,2014-08-02T02:45:00,0,20838008,203742
OK,69,68,838,69,2014-08-02T02:50:00,0,20838457,203742
OK,69,68,838,69,2014-08-02T02:55:00,0,20838906,203742
OK,69,68,838,69,2014-08-02T03:00:00,0,20839355,203742
OK,69,68,838,69,2014-08-02T03:05:00,0,20839804,203742
OK,69,68,838,69,2014-08-02T03:10:00,0,20840253,203742
OK,69,68,838,69,2014-08-02T03:15:00,0,20840702,203742
OK,69,68,838,69,2014-08-02T03:20:00,0,20841151,203742
OK,69,68,838,69,2014-08-02T03:25:00,0,20841600,203742
OK,69,68,838,69,2014-08-02T03:30:00,0,20842049,203742
OK,69,68,838,69,2014-08-02T03:35:00,0,20842498,203742
OK,69,68,838,69,2014-08-02T03:40:00,0,20842947,203742
OK,69,68,838,69,2014-08-02T03:45:00,0,20843396,203742
OK,69,68,838,69,2014-08-02T03:50:00,0,20843845,203742
OK,69,68,838,69,2014-08-02T03:55:00,0,20844294,203742
OK,69,68,838,69,2014-08-02T04:10:00,0,20845154,203742
OK,69,68,838,69,2014-08-02T04:15:00,0,20845381,203742
OK,69,68,838,69,2014-08-02T04:20:00,0,20845740,203742
OK,69,68,838,69,2014-08-02T04:30:00,0,20846296,203742
OK,69,68,838,69,2014-08-02T04:35:00,0,20846663,203742
OK,69,68,838,69,2014-08-02T04:40:00,0,20847014,203742
OK,69,68,838,69,2014-08-02T04:45:00,0,20847305,203742
OK,69,68,838,69,2014-08-02T04:50:00,0,20847663,203742
OK,69,68,838,69,2014-08-02T05:20:00,0,20849442,203742
OK,69,68,838,69,2014-08-02T05:40:00,0,20850532,203742
OK,69,68,838,69,2014-08-02T05:50:00,0,20851188,203742
OK,69,68,838,69,2014-08-02T06:00:00,0,20851748,203742
OK,69,68,838,69,2014-08-02T06:05:00,0,20852197,203742
OK,69,68,838,69,2014-08-02T06:10:00,0,20852646,203742
OK,69,68,838,69,2014-08-02T06:15:00,0,20853095,203742
OK,69,68,838,69,2014-08-02T06:20:00,0,20853544,203742
OK,69,68,838,69,2014-08-02T06:25:00,0,20853993,203742
OK,69,68,838,69,2014-08-02T06:30:00,0,20854442,203742
OK,69,68,838,69,2014-08-02T06:35:00,0,20854891,203742
OK,69,68,838,69,2014-08-02T06:40:00,0,20855340,203742
OK,69,68,838,69,2014-08-02T06:45:00,0,20855789,203742
OK,69,68,838,69,2014-08-02T06:50:00,0,20856238,203742
OK,69,68,838,69,2014-08-02T06:55:00,0,20856687,203742
OK,69,68,838,69,2014-08-02T07:00:00,0,20857136,203742
OK,69,68,838,69,2014-08-02T07:05:00,0,20857585,203742
OK,69,68,838,69,2014-08-02T07:10:00,0,20858034,203742
OK,69,68,838,69,2014-08-02T07:15:00,0,20858483,203742
OK,69,68,838,69,2014-08-02T07:20:00,0,20858932,203742
OK,69,68,838,69,2014-08-02T07:25:00,0,20859381,203742
OK,69,68,838,69,2014-08-02T07:30:00,0,20859830,203742
OK,69,68,838,69,2014-08-02T07:35:00,0,20860279,203742
OK,69,68,838,69,2014-08-02T07:40:00,0,20860728,203742
OK,69,68,838,69,2014-08-02T07:45:00,0,20861177,203742
OK,69,68,838,69,2014-08-02T07:50:00,0,20861626,203742
OK,69,68,838,69,2014-08-02T07:55:00,0,20862075,203742
OK,69,68,838,69,2014-08-02T08:00:00,0,20862524,203742
OK,69,68,838,69,2014-08-02T08:05:00,0,20862973,203742
OK,69,68,838,69,2014-08-02T08:10:00,0,20863422,203742
OK,69,68,838,69,2014-08-02T08:15:00,0,20863871,203742
OK,69,68,838,69,2014-08-02T08:20:00,0,20864320,203742
OK,69,68,838,69,2014-08-02T08:25:00,0,20864769,203742
OK,69,68,838,69,2014-08-02T08:30:00,0,20865218,203742
OK,69,68,838,69,2014-08-02T08:35:00,0,20865667,203742
OK,69,68,838,69,2014-08-02T08:40:00,0,20866116,203742
OK,69,68,838,69,2014-08-02T08:45:00,0,20866565,203742
OK,69,68,838,69,2014-08-02T08:50:00,0,20867014,203742
OK,69,68,838,69,2014-08-02T08:55:00,0,20867463,203742
OK,69,68,838,69,2014-08-02T09:00:00,0,20867912,203742
OK,69,68,838,69,2014-08-02T09:05:00,0,20868361,203742
OK,69,68,838,69,2014-08-02T09:10:00,0,20868810,203742
OK,69,68,838,69,2014-08-02T09:15:00,0,20869259,203742
OK,69,68,838,69,2014-08-02T09:20:00,0,20869708,203742
OK,69,68,838,69,2014-08-02T09:25:00,0,20870157,203742
OK,69,68,838,69,2014-08-02T09:30:00,0,20870606,203742
OK,69,68,838,69,2014-08-02T09:35:00,0,20871055,203742
OK,69,68,838,69,2014-08-02T09:40:00,0,20871504,203742
OK,69,68,838,69,2014-08-02T09:45:00,0,20871953,203742
OK,69,68,838,69,2014-08-02T09:50:00,0,20872402,203742
OK,69,68,838,69,2014-08-02T09:55:00,0,20872851,203742
OK,69,68,838,69,2014-08-02T10:00:00,0,20873300,203742
OK,69,68,838,69,2014-08-02T10:05:00,0,20873749,203742
OK,69,68,838,69,2014-08-02T10:10:00,0,20874198,203742
OK,69,68,838,69,2014-08-02T10:15:00,0,20874647,203742
OK,69,68,838,69,2014-08-02T10:20:00,0,20875096,203742
OK,69,68,838,69,2014-08-02T10:25:00,0,20875545,203742
OK,69,68,838,69,2014-08-02T10:30:00,0,20875994,203742
OK,69,68,838,69,2014-08-02T10:35:00,0,20876443,203742
OK,69,68,838,69,2014-08-02T10:40:00,0,20876892,203742
OK,69,68,838,69,2014-08-02T10:45:00,0,20877341,203742
OK,69,68,838,69,2014-08-02T10:50:00,0,20877790,203742
OK,69,68,838,69,2014-08-02T10:55:00,0,20878239,203742
OK,69,68,838,69,2014-08-02T11:00:00,0,20878688,203742
OK,69,68,838,69,2014-08-02T11:05:00,0,20879137,203742
OK,69,68,838,69,2014-08-02T11:10:00,0,20879586,203742
OK,69,68,838,69,2014-08-02T11:15:00,0,20880035,203742
OK,69,68,838,69,2014-08-02T11:20:00,0,20880484,203742
OK,69,68,838,69,2014-08-02T11:25:00,0,20880933,203742
OK,69,68,838,69,2014-08-02T11:30:00,0,20881382,203742
OK,69,68,838,69,2014-08-02T11:35:00,0,20881831,203742
OK,69,68,838,69,2014-08-02T11:40:00,0,20882280,203742
OK,69,68,838,69,2014-08-02T11:45:00,0,20882729,203742
OK,69,68,838,69,2014-08-02T11:50:00,0,20883178,203742
OK,69,68,838,69,2014-08-02T11:55:00,0,20883627,203742
OK,69,68,838,69,2014-08-02T12:00:00,0,20884076,203742
OK,69,68,838,69,2014-08-02T12:05:00,0,20884525,203742
OK,69,68,838,69,2014-08-02T12:10:00,0,20884974,203742
OK,69,68,838,69,2014-08-02T12:15:00,0,20885423,203742
OK,69,68,838,69,2014-08-02T12:20:00,0,20885872,203742
OK,69,68,838,69,2014-08-02T12:25:00,0,20886321,203742
OK,69,68,838,69,2014-08-02T12:30:00,0,20886770,203742
OK,69,68,838,69,2014-08-02T12:35:00,0,20887219,203742
OK,69,68,838,69,2014-08-02T12:40:00,0,20887668,203742
OK,69,68,838,69,2014-08-02T12:45:00,0,20888117,203742
OK,69,68,838,69,2014-08-02T12:50:00,0,20888566,203742
OK,69,68,838,69,2014-08-02T12:55:00,0,20889015,203742
OK,69,68,838,69,2014-08-02T13:00:00,0,20889464,203742
OK,69,68,838,69,2014-08-02T13:05:00,0,20889913,203742
OK,69,68,838,69,2014-08-02T13:10:00,0,20890362,203742
OK,69,68,838,69,2014-08-02T13:15:00,0,20890811,203742
OK,69,68,838,69,2014-08-02T13:20:00,0,20891260,203742
OK,69,68,838,69,2014-08-02T13:25:00,0,20891709,203742
OK,69,68,838,69,2014-08-02T13:30:00,0,20892158,203742
OK,69,68,838,69,2014-08-02T13:35:00,0,20892607,203742
OK,69,68,838,69,2014-08-02T13:40:00,0,20893056,203742
OK,69,68,838,69,2014-08-02T13:45:00,0,20893505,203742
OK,69,68,838,69,2014-08-02T13:50:00,0,20893954,203742
OK,69,68,838,69,2014-08-02T13:55:00,0,20894403,203742
OK,69,68,838,69,2014-08-02T14:00:00,0,20894852,203742
OK,69,68,838,69,2014-08-02T14:05:00,0,20895301,203742
OK,69,68,838,69,2014-08-02T14:10:00,0,20895750,203742
OK,69,68,838,69,2014-08-02T14:15:00,0,20896199,203742
OK,69,68,838,69,2014-08-02T14:20:00,0,20896648,203742
OK,69,68,838,69,2014-08-02T14:25:00,0,20897097,203742
OK,69,68,838,69,2014-08-02T14:30:00,0,20897546,203742
OK,69,68,838,69,2014-08-02T14:35:00,0,20897995,203742
OK,69,68,838,69,2014-08-02T14:40:00,0,20898444,203742
OK,69,68,838,69,2014-08-02T14:45:00,0,20898893,203742
OK,69,68,838,69,2014-08-02T14:50:00,0,20899342,203742
OK,69,68,838,69,2014-08-02T14:55:00,0,20899791,203742
OK,69,68,838,69,2014-08-02T15:00:00,0,20900240,203742
OK,69,68,838,69,2014-08-02T15:05:00,0,20900689,203742
OK,69,68,838,69,2014-08-02T15:10:00,0,20901138,203742
OK,69,68,838,69,2014-08-02T15:15:00,0,20901587,203742
OK,69,68,838,69,2014-08-02T15:20:00,0,20902036,203742
OK,69,68,838,69,2014-08-02T15:25:00,0,20902485,203742
OK,69,68,838,69,2014-08-02T15:30:00,0,20902934,203742
OK,69,68,838,69,2014-08-02T15:35:00,0,20903383,203742
OK,69,68,838,69,2014-08-02T15:40:00,0,20903832,203742
OK,69,68,838,69,2014-08-02T15:45:00,0,20904281,203742
OK,69,68,838,69,2014-08-02T15:50:00,0,20904730,203742
OK,69,68,838,69,2014-08-02T15:55:00,0,20905179,203742
OK,69,68,838,69,2014-08-02T16:00:00,0,20905628,203742
OK,69,68,838,69,2014-08-02T16:05:00,0,20906077,203742
OK,69,68,838,69,2014-08-02T16:10:00,0,20906526,203742
OK,69,68,838,69,2014-08-02T16:15:00,0,20906975,203742
OK,69,68,838,69,2014-08-02T16:20:00,0,20907424,203742
OK,69,68,838,69,2014-08-02T16:25:00,0,20907873,203742
OK,69,68,838,69,2014-08-02T16:30:00,0,20908322,203742
OK,69,68,838,69,2014-08-02T16:35:00,0,20908771,203742
OK,69,68,838,69,2014-08-02T16:40:00,0,20909220,203742
OK,69,68,838,69,2014-08-02T16:45:00,0,20909669,203742
OK,69,68,838,69,2014-08-02T16:50:00,0,20910118,203742
OK,69,68,838,69,2014-08-02T16:55:00,0,20910567,203742
OK,69,68,838,69,2014-08-02T17:00:00,0,20911016,203742
OK,69,68,838,69,2014-08-02T17:05:00,0,20911465,203742
OK,69,68,838,69,2014-08-02T17:10:00,0,20911914,203742
OK,69,68,838,69,2014-08-02T17:15:00,0,20912363,203742
OK,69,68,838,69,2014-08-02T17:20:00,0,20912812,203742
OK,69,68,838,69,2014-08-02T17:25:00,0,20913261,203742
OK,69,68,838,69,2014-08-02T17:30:00,0,20913710,203742
OK,69,68,838,69,2014-08-02T17:35:00,0,20914159,203742
OK,69,68,838,69,2014-08-02T17:40:00,0,20914608,203742
OK,69,68,838,69,2014-08-02T17:45:00,0,20915057,203742
OK,69,68,838,69,2014-08-02T17:50:00,0,20915506,203742
OK,69,68,838,69,2014-08-02T17:55:00,0,20915955,203742
OK,69,68,838,69,2014-08-02T18:00:00,0,20916404,203742
OK,69,68,838,69,2014-08-02T18:05:00,0,20916853,203742
OK,69,68,838,69,2014-08-02T18:10:00,0,20917302,203742
OK,69,68,838,69,2014-08-02T18:15:00,0,20917751,203742
OK,69,68,838,69,2014-08-02T18:20:00,0,20918200,203742
OK,69,68,838,69,2014-08-02T18:25:00,0,20918649,203742
OK,69,68,838,69,2014-08-02T18:30:00,0,20919098,203742
OK,69,68,838,69,2014-08-02T18:35:00,0,20919547,203742
OK,69,68,838,69,2014-08-02T18:40:00,0,20919996,203742
OK,69,68,838,69,2014-08-02T18:45:00,0,20920445,203742
OK,69,68,838,69,2014-08-02T18:50:00,0,20920894,203742
OK,69,68,838,69,2014-08-02T18:55:00,0,20921343,203742
OK,69,68,838,69,2014-08-02T19:00:00,0,20921792,203742
OK,69,68,838,69,2014-08-02T19:05:00,0,20922241,203742
OK,69,68,838,69,2014-08-02T19:10:00,0,20922690,203742
OK,69,68,838,69,2014-08-02T19:15:00,0,20923139,203742
OK,0,0,838,0,2014-08-02T19:20:00,0,20923588,203742
OK,0,0,838,0,2014-08-02T19:25:00,0,20924037,203742
OK,0,0,838,0,2014-08-02T19:30:00,0,20924486,203742
OK,0,0,838,0,2014-08-02T19:35:00,0,20924935,203742
OK,0,0,838,0,2014-08-02T19:40:00,0,20925384,203742
OK,0,0,838,0,2014-08-02T19:45:00,0,20925833,203742
OK,0,0,838,0,2014-08-02T19:50:00,0,20926282,203742
OK,0,0,838,0,2014-08-02T19:55:00,0,20926731,203742
OK,0,0,838,0,2014-08-02T20:00:00,0,20927180,203742
OK,0,0,838,0,2014-08-02T20:05:00,0,20927629,203742
OK,0,0,838,0,2014-08-02T20:10:00,0,20928078,203742
OK,0,0,838,0,2014-08-02T20:15:00,0,20928527,203742
OK,0,0,838,0,2014-08-02T20:20:00,0,20928976,203742
OK,0,0,838,0,2014-08-02T20:25:00,0,20929425,203742
OK,0,0,838,0,2014-08-02T20:30:00,0,20929874,203742
OK,0,0,838,0,2014-08-02T20:35:00,0,20930323,203742
OK,0,0,838,0,2014-08-02T20:40:00,0,20930772,203742
OK,0,0,838,0,2014-08-02T20:45:00,0,20931221,203742
OK,0,0,838,0,2014-08-02T20:50:00,0,20931670,203742
OK,0,0,838,0,2014-08-02T20:55:00,0,20932119,203742
OK,0,0,838,0,2014-08-02T21:00:00,0,20932568,203742
OK,0,0,838,0,2014-08-02T21:05:00,0,20933017,203742
OK,0,0,838,0,2014-08-02T21:10:00,0,20933466,203742
OK,0,0,838,0,2014-08-02T21:15:00,0,20933915,203742
OK,0,0,838,0,2014-08-02T21:20:00,0,20934364,203742
OK,0,0,838,0,2014-08-02T21:25:00,0,20934813,203742
OK,0,0,838,0,2014-08-02T21:30:00,0,20935262,203742
OK,0,0,838,0,2014-08-02T21:35:00,0,20935711,203742
OK,0,0,838,0,2014-08-02T21:40:00,0,20936160,203742
OK,0,0,838,0,2014-08-02T21:45:00,0,20936609,203742
OK,0,0,838,0,2014-08-02T21:50:00,0,20937058,203742
OK,0,0,838,0,2014-08-02T21:55:00,0,20937507,203742
OK,0,0,838,0,2014-08-02T22:00:00,0,20937956,203742
OK,0,0,838,0,2014-08-02T22:05:00,0,20938405,203742
OK,0,0,838,0,2014-08-02T22:10:00,0,20938854,203742
OK,0,0,838,0,2014-08-02T22:15:00,0,20939303,203742
OK,0,0,838,0,2014-08-02T22:20:00,0,20939752,203742
OK,0,0,838,0,2014-08-02T22:25:00,0,20940201,203742
OK,0,0,838,0,2014-08-02T22:30:00,0,20940650,203742
OK,0,0,838,0,2014-08-02T22:35:00,0,20941099,203742
OK,0,0,838,0,2014-08-02T22:40:00,0,20941548,203742
OK,0,0,838,0,2014-08-02T22:45:00,0,20941997,203742
OK,0,0,838,0,2014-08-02T22:50:00,0,20942446,203742
OK,0,0,838,0,2014-08-02T22:55:00,0,20942895,203742
OK,0,0,838,0,2014-08-02T23:00:00,0,20943344,203742
OK,0,0,838,0,2014-08-02T23:10:00,0,20943793,203742
OK,0,0,838,0,2014-08-02T23:15:00,0,20944242,203742
OK,0,0,838,0,2014-08-02T23:20:00,0,20944691,203742
OK,0,0,838,0,2014-08-02T23:25:00,0,20945140,203742
OK,0,0,838,0,2014-08-02T23:30:00,0,20945589,203742
OK,0,0,838,0,2014-08-02T23:35:00,0,20946038,203742
OK,0,0,838,0,2014-08-02T23:40:00,0,20946487,203742
OK,0,0,838,0,2014-08-02T23:45:00,0,20946936,203742
OK,0,0,838,0,2014-08-02T23:50:00,0,20947385,203742
OK,0,0,838,0,2014-08-02T23:55:00,0,20947834,203742
OK,0,0,838,0,2014-08-03T00:00:00,0,20948283,203742
OK,0,0,838,0,2014-08-03T00:05:00,0,20948732,203742
OK,0,0,838,0,2014-08-03T00:10:00,0,20949180,203742
OK,0,0,838,0,2014-08-03T00:15:00,0,20949629,203742
OK,0,0,838,0,2014-08-03T00:20:00,0,20950078,203742
OK,0,0,838,0,2014-08-03T00:25:00,0,20950527,203742
OK,0,0,838,0,2014-08-03T00:30:00,0,20950976,203742
OK,0,0,838,0,2014-08-03T00:35:00,0,20951425,203742
OK,0,0,838,0,2014-08-03T00:40:00,0,20951874,203742
OK,0,0,838,0,2014-08-03T00:45:00,0,20952323,203742
OK,0,0,838,0,2014-08-03T00:50:00,0,20952772,203742